TimeEST,TemperatureF,Dew PointF,Humidity,Sea Level PressureIn,VisibilityMPH,Wind Direction,Wind SpeedMPH,Gust SpeedMPH,PrecipitationIn,Events,Conditions,WindDirDegrees,DateUTC
12:53 AM,72.0,72.0,100,30.06,10.0,NE,9.2,-,0.01,,Mostly Cloudy,40,2014-01-05 05:53:00
1:53 AM,72.0,-9999,N/A,30.05,10.0,North,5.8,-,0.00,,Mostly Cloudy,10,2014-01-05 06:53:00
2:53 AM,72.0,71.1,97,30.03,10.0,East,4.6,-,0.01,Rain,Light Rain,80,2014-01-05 07:53:00
3:28 AM,72.0,72.0,100,30.02,8.0,Calm,Calm,-,0.03,Rain-Thunderstorm,Light Rain,0,2014-01-05 08:28:00
3:43 AM,72.0,72.0,100,30.01,7.0,Calm,Calm,-,0.06,Rain,Light Rain,0,2014-01-05 08:43:00
3:53 AM,72.0,72.0,100,30.01,7.0,Calm,Calm,-,0.07,Rain,Light Rain,0,2014-01-05 08:53:00
4:53 AM,73.9,73.0,97,29.99,10.0,ESE,9.2,-,0.02,Rain,Light Rain,120,2014-01-05 09:53:00
5:53 AM,73.9,72.0,93,29.98,10.0,SSE,10.4,17.3,0.01,Rain,Light Rain,160,2014-01-05 10:53:00
6:53 AM,73.9,71.1,91,29.94,10.0,SE,13.8,24.2,0.00,,Mostly Cloudy,140,2014-01-05 11:53:00
7:53 AM,75.9,72.0,87,29.99,10.0,SSE,11.5,24.2,N/A,,Scattered Clouds,160,2014-01-05 12:53:00
8:53 AM,75.0,71.1,87,30.00,10.0,South,16.1,26.5,N/A,,Mostly Cloudy,170,2014-01-05 13:53:00
9:53 AM,77.0,71.1,82,30.02,10.0,SSE,8.1,-,N/A,,Clear,160,2014-01-05 14:53:00
10:53 AM,81.0,72.0,74,30.04,10.0,SSW,3.5,-,N/A,,Partly Cloudy,200,2014-01-05 15:53:00
11:27 AM,80.1,73.0,79,30.04,10.0,Calm,Calm,-,N/A,,Mostly Cloudy,0,2014-01-05 16:27:00
11:53 AM,80.1,73.9,81,30.03,10.0,Calm,Calm,-,N/A,,Overcast,0,2014-01-05 16:53:00
12:06 PM,82.0,73.9,76,30.01,10.0,South,6.9,-,N/A,,Scattered Clouds,190,2014-01-05 17:06:00
12:53 PM,82.9,75.0,77,29.99,10.0,South,5.8,-,N/A,,Partly Cloudy,180,2014-01-05 17:53:00
1:53 PM,82.0,73.9,76,29.97,10.0,South,9.2,-,N/A,,Partly Cloudy,190,2014-01-05 18:53:00
2:53 PM,81.0,73.9,79,29.97,10.0,Variable,5.8,-,N/A,,Partly Cloudy,0,2014-01-05 19:53:00
3:53 PM,81.0,73.9,79,29.98,10.0,SSW,5.8,-,N/A,,Partly Cloudy,210,2014-01-05 20:53:00
4:53 PM,79.0,72.0,79,29.99,10.0,SW,4.6,-,N/A,,Clear,220,2014-01-05 21:53:00
5:53 PM,78.1,72.0,81,30.00,10.0,SW,3.5,-,N/A,,Clear,230,2014-01-05 22:53:00
6:53 PM,75.0,72.0,90,30.01,10.0,Calm,Calm,-,N/A,,Clear,0,2014-01-05 23:53:00
7:53 PM,73.0,72.0,96,30.03,10.0,Calm,Calm,-,N/A,,Clear,0,2014-01-06 00:53:00
8:53 PM,73.0,72.0,96,30.02,10.0,Calm,Calm,-,N/A,,Clear,0,2014-01-06 01:53:00
9:53 PM,73.0,71.1,93,30.03,10.0,Calm,Calm,-,N/A,,Clear,0,2014-01-06 02:53:00
10:53 PM,71.1,71.1,100,30.03,10.0,Calm,Calm,-,N/A,,Clear,0,2014-01-06 03:53:00
11:53 PM,71.1,70.0,96,30.02,10.0,Calm,Calm,-,N/A,,Clear,0,2014-01-06 04:53:00